User: anonymous   Login
Location: Nag� el Ma?a??a
(24.0667°N, 32.8833°E)
Time: 15:37:09
(UTC+00:00)
Language:

Cosmos 1536 - Orbit

View from above orbital plane
View from above orbital plane
View from above satellite
View from above satellite

Ground track
Ground track

The orbit data is extracted from the following two-line orbital elements,

1 14699U 84013A   21331.06989104  .00000058  00000-0  19616-5 0  9993
2 14699  82.5266 196.3558 0010947 272.5336  87.4638 15.05985288 57410
Epoch (UTC): 27 November 2021 01:40:38
Eccentricity: 0.0010947
inclination: 82.5266°
perigee height: 541 km
apogee height: 556 km
right ascension of ascending node: 196.3558°
argument of perigee: 272.5336°
revolutions per day: 15.05985288
mean anomaly at epoch: 87.4638°
orbit number at epoch: 5741

The dashed part of the orbit path shows where the satellite is in the earth's shadow,  

DLR